Location: Ammerl�gen
(47.2167°N, 9.6000°E)
Time: 04:16:21
(UTC+00:00)

Cosmos 2219 - Pass Details

Date: 21 April 2021
Orbit: 834 x 860 km, 71.1° (Epoch: 16 May)

Event Time Altitude Azimuth Distance (km) Brightness Sun altitude
Rises 21:03:52 0° 228° (SW) 3,372 6.3 -23.3°
Reaches altitude 10° 21:06:26 10° 236° (SW) 2,441 5.6 -23.5°
Maximum altitude 21:11:42 41° 306° (NW) 1,198 4.4 -24.1°
Drops below altitude 10° 21:17:01 10° 16° (NNE) 2,460 6.1 -24.6°
Sets 21:19:37 0° 24° (NNE) 3,401 6.8 -24.8°
